This is the latest recevied weather packets stored in our database for station/object K0PFX-8. If no packets are shown the sender has not sent any weather packets the latest 10 day(s).
| Time | Temp. | Humidity | Pressure | Rain* | Wind** | Luminosity | Snow |
|---|---|---|---|---|---|---|---|
| 1777634501 | 7.78° C | 81% | 1019.6 hPa | 0 mm | 0 m/s | - | - |
| 1777633600 | 8.33° C | 77% | 1019.6 hPa | 0 mm | 0 m/s | - | - |
| 1777632701 | 8.33° C | 75% | 1019.5 hPa | 0 mm | 0 m/s | - | - |
| 1777631799 | 8.89° C | 71% | 1019.4 hPa | 0 mm | 0 m/s | - | - |
| 1777630901 | 8.89° C | 68% | 1019.4 hPa | 0 mm | 0.45 m/s, 297° | - | - |
| 1777630000 | 8.89° C | 68% | 1019.1 hPa | 0 mm | 0 m/s | - | - |
| 1777629102 | 8.89° C | 70% | 1019.1 hPa | 0 mm | 1.79 m/s, 288° | - | - |
| 1777628202 | 9.44° C | 67% | 1019.1 hPa | 0 mm | 1.79 m/s, 259° | - | - |
| 1777627303 | 9.44° C | 66% | 1019.1 hPa | 0 mm | 1.79 m/s, 298° | - | - |
| 1777626402 | 10° C | 69% | 1019.2 hPa | 0 mm | 2.68 m/s, 281° | - | - |
| 1777625504 | 10° C | 67% | 1019.1 hPa | 0 mm | 1.34 m/s, 255° | - | - |
| 1777624603 | 10° C | 69% | 1018.9 hPa | 0 mm | 2.68 m/s, 285° | - | - |
| 1777623705 | 10.56° C | 71% | 1018.5 hPa | 0 mm | 2.68 m/s, 274° | - | - |
| 1777622803 | 10.56° C | 70% | 1018.5 hPa | 0 mm | 1.79 m/s, 329° | - | - |
| 1777621905 | 11.11° C | 72% | 1018.5 hPa | 0 mm | 0 m/s | - | - |
| 1777621003 | 11.11° C | 73% | 1018.4 hPa | 0 mm | 0.89 m/s, 252° | - | - |
| 1777620105 | 11.67° C | 64% | 1018.5 hPa | 0 mm | 2.68 m/s, 302° | - | - |
| 1777618306 | 11.67° C | 73% | 1018.6 hPa | 0 mm | 2.24 m/s, 263° | - | - |
| 1777617405 | 12.22° C | 80% | 1018.6 hPa | 0 mm | 1.79 m/s, 301° | - | - |
| 1777616507 | 12.22° C | 82% | 1018.6 hPa | 0 mm | 2.68 m/s, 242° | - | - |
| 1777615606 | 12.22° C | 81% | 1018.5 hPa | 0 mm | 1.34 m/s, 233° | - | - |
| 1777614708 | 12.22° C | 83% | 1018.3 hPa | 0 mm | 0.89 m/s, 257° | - | - |
| 1777613807 | 12.22° C | 83% | 1018.2 hPa | 0.25 mm | 1.79 m/s, 281° | - | - |
| 1777612909 | 12.22° C | 85% | 1017.9 hPa | 0.25 mm | 0.45 m/s, 359° | - | - |
| 1777612008 | 12.22° C | 85% | 1017.9 hPa | 0.25 mm | 0.45 m/s, 301° | - | - |
* Rain latest hour (hover to see other rain measurements)
** Current wind speed in m/s (hover to see current wind gust speed)